STARLINK-32150, 60294

Orbit data source: Space-Track

STARLINK-32150, 60294 is a payload satellite owned by SpaceX/Seattle (US) in LEO that was launched on Sun, 28 Jul 2024 UTC via an FALCON 9 launch vehicle from the Air Force Eastern Test Range (AFETR). Payload-class satellites include a variety of spacecraft equipped with specific instruments for various scientific and technological missions. These include communications satellites like Starlink; space stations such as the ISS; scientific satellites like the Hubble; Earth observation satellites from companies like Planet Labs, Umbra, and HawkEye 360; GPS; miniature CubeSats for education and research; and military/defense satellites.

Loading next visibility...
Identifier
60294, 2024-132S
Orbit
LEO
Last TLE update
9 hours ago
Origin
Manufacturer
SpaceX/Seattle
Mission
Operational spacecraft
Bus & Motor
STARLINK V2M, Unknown motor
Mass
730 kg wet, ~700 kg dry
Launch date (UTC)
2024-07-28 (11 months ago)
Launch vehicle
FALCON 9
Launch site
Air Force Eastern Test Range (AFETR)
Object type
Payload
Rocket body
Debris
Shape & HBR
Unknown
Radar Cross Section
Large (>1 m²)

Expand to show TLE details & history

TLE from 9 hours ago
0 STARLINK-32150
1 60294U 24132S   25182.85513768  .00000682  00000-0  35162-4 0  9991
2 60294  53.1599 137.7381 0001607  93.5319 266.5865 15.30197986 53150
Epoch: 2025-07-01T20:31Z
TLE epoch observation values (Epoch: 2025-07-01T20:31:23.895Z)
Latitude
-0.00007°
Longitude
-90.25612°
Altitude
476.187 km
Speed
7.629 km/s
True Right ascension
09h 10m 57s
True Declination
0° 00' 00"
Sunlit
Object was in daylight at epoch
Visualization orbit readout
Latitude
-53.30651°
Longitude
179.12457°
Altitude
494.859 km
Speed
7.616 km/s
Apparent Right ascension
04h 16m 47s
Apparent Declination
-47° 45' 19"
Sunlit
Object is in daylight
Visualization observer readout
Local Sidereal Time
17:13:56
Azimuth
132.072° SE
Elevation
-77.088°
Doppler factor
1
Orbital elements
Apogee altitude
476.579 km
Perigee altitude
474.376 km
Semi-major axis
6,853.615 km
Eccentricity
0.00016
Inclination
53.1599°
RAAN
137.7381°
Arg. of periapsis
93.5319°
True anomaly
Unknown
Mean anomaly
266.5865°
Eccentric anomaly
Unknown
Mean motion
3.82528 °/min
Orbital period
94.11 mins
BSTAR
0.000035162
Loading maneuver chart data...
Loading SW <> Apogee altitude chart data...
Loading historical data...
Loading historical data...
Loading historical data...
Loading historical data...
Loading historical data...
Loading historical data...
Loading historical data...

STARLINK-32150 Visibility forecast

Observer location: undefined°, undefined°

Span
Click to sort rows by Start time (UTC) header in descending order
Start Az.
Max El. time (UTC)
Max El. Az.
Max El.
End time (UTC)
End Az.
6 mins2025-07-02 06:25:20.853Z318.927° NNW2025-07-02 06:28:20.853Z62.403° ENE40.501°2025-07-02 06:31:20.853Z117.875° SE
5 mins2025-07-02 23:21:20.853Z212.055° SW2025-07-02 23:23:20.853Z156.068° SSE41.064°2025-07-02 23:26:20.853Z58.443° ENE
4 mins2025-07-03 01:00:20.853Z303.019° NW2025-07-03 01:01:20.853Z325.142° NNW20.302°2025-07-03 01:04:20.853Z24.435° NE
|